Regional Weather Roundup
Issued by NWS

Home | Current Version | Previous Version | Text Only | Print | Product List | Glossary Off
Versions: 1 2 3 4 5 6 7 8 9 10 11 12 13 14 15 16 17 18 19 20 21 22 23 24 25 26 27 28 29 30 31 32 33 34 35 36 37 38 39 40 41 42 43 44 45 46 47 48 49 50

238
ASUS43 KFSD 280102
RWRSD

WEATHER ROUNDUP FOR SOUTH DAKOTA
NATIONAL WEATHER SERVICE SIOUX FALLS SD
700 PM CST MON FEB 27 2017

NOTE: "FAIR" INDICATES FEW OR NO CLOUDS BELOW 12,000 FEET WITH NO
SIGNIFICANT WEATHER AND/OR OBSTRUCTIONS TO VISIBILITY.


SDZ001>005-009-010-012>017-280200-
NORTHWEST AND NORTH CENTRAL SOUTH DAKOTA

CITY           SKY/WX    TMP DP  RH WIND       PRES   REMARKS
BUFFALO          N/A     27  19  72 E15       29.62R WCI  15
FAITH            N/A     29  23  78 NE13      29.68R WCI  19
MOBRIDGE       CLOUDY    30  23  75 NE15      29.70R WCI  19
$$

SDZ012>016-024>037-041>051-057-063-072>074-280200-
SOUTHWEST AND SOUTH CENTRAL SOUTH DAKOTA

CITY           SKY/WX    TMP DP  RH WIND       PRES   REMARKS
RAPID CTY ARPT CLOUDY    34  17  50 NE8       29.62R WCI  27
PIERRE         CLOUDY    39  21  48 N14       29.66R
CUSTER         CLOUDY    26  16  65 NE6       29.55F WCI  19
ELLSWORTH AFB  CLOUDY    36  15  42 NE10      29.62R
PHILIP         LGT RAIN  38  33  82 NW5       29.66R
PINE RIDGE     CLOUDY    34  26  72 SW6       29.65R WCI  29
SPEARFISH      FAIR      30  19  64 E6        29.62S WCI  24
WINNER         FAIR      38  30  73 S8        29.66R
$$

SDZ004>011-016>023-039-040-280200-
NORTHEAST SOUTH DAKOTA

CITY           SKY/WX    TMP DP  RH WIND       PRES   REMARKS
ABERDEEN       CLOUDY    33  26  75 N15       29.76R WCI  23
WATERTOWN      CLOUDY    35  26  69 S6        29.73R
BROOKINGS      CLOUDY    39  26  59 S13       29.74R
SISSETON         N/A     34  30  85 NW9       29.75R WCI  27
$$

SDZ017-020-022-023-036>040-048>070-280200-
SOUTHEAST SOUTH DAKOTA

CITY           SKY/WX    TMP DP  RH WIND       PRES   REMARKS
SIOUX FALLS    CLOUDY    41  30  65 SE9       29.76S
HURON          CLEAR     40  28  62 S9        29.71R
CHAMBERLAIN    CLEAR     37  29  75 E5        29.68R
MITCHELL       CLEAR     36  28  73 SE7       29.73R
YANKTON        PTCLDY    37  28  70 NE7       29.73S
$$

ABBREVIATIONS USED IN REMARKS
   TC - TEMPERATURE IN CELSIUS
  WCI - WIND CHILL INDEX
   HX - HEAT INDEX
  VSB - VISIBILITY





USA.gov is the U.S. government's official web portal to all federal, state and local government web resources and services.